YUSAT-1 (47439 NORAD) Tracking and Keplerian Element Data
This shows tracking and keplerian element data for the satellite.
Feedback or suggestion? Click here.
Element | Value |
Catalog | 47439 |
Name | YUSAT-1 |
Epoch Orbit | 1263 |
Epoch Day | 106.15235643 |
Epoch Year | 2021 |
RAAN | 168.4746 |
Inclination | 97.4933 |
Eccentricity | 0.0011425 |
Argument of Perigee | 318.8703 |
Mean Anonmoly | 41.1666 |
Mean Motion | 15.12967079 |
Decay Rate | 8.13E-06 |
L1 | 1 47439U 21006AC 21106.15235643 .00000813 00000-0 49731-4 0 9995 |
L2 | 2 47439 97.4933 168.4746 0011425 318.8703 41.1666 15.12967079 12636 |
Live tracking and technical data element details for YUSAT-1 (NORAD 47439). YUSAT-1 can be tracked NOW for your location showing map with azimuth and elevation plus other details from your city location.
Track the satellite on the map from your city or location and see movement details for azimuth, elevation, latitude, longitude, range, height, and movement on the map or in text.
IsCatalogInMostPopularTable: catalog: 47439, numindb: 18
Update: records affected: 1
GetName: 47439 YUSAT-1
Hit Count: updated at: Fri, 16 Apr 2021 10:55:54 GMT